There are multiple Weather-warnings   Click here for more information


Meteo18 Weather Cam more information Meteo18 Weather Cam


Thunder radar more information blitzortung!


warning for Snow/Ice more information rain snow radar


Visit our other weather sites:

Template documentation
and downloads

And another site



Weather Underground History page Text

Daily Summary for January 18, 2017 Units:  Metric    English   Both
« Previous Day
Next Day »
Daily Weekly Monthly Yearly Custom
  High: Low: Average:
Temperature: -17.8 °C -20.7 °C -19.6 °C
Dew Point: -17.8 °C -21.9 °C -21.3 °C
Humidity: Humidity % 71 % 79 %
Wind Speed: 0 km/h 0 km/h 17.4 km/h
Wind Gust: 0 km/h - -
Wind:- - East
Pressure: 0 hPa 34865.6 hPa -
Precipitation: 0 mm    
Historical Graphs
 
 
Tabular Data for January 18, 2017
Time Temperature Dew Point Pressure Wind Wind Speed Wind Gust Humidity Rainfall Rate (Hourly)
-17.8 °C -17.8 °C 0 hPa Calm     Humidity % 0 mm
00:02 -19.8 °C -21.6 °C 34899.5 hPa NE 38.8 km/h 54.4 km/h 79 % 0 mm
00:12 -19.8 °C -21.6 °C 34899.5 hPa NNE 41.4 km/h 54.4 km/h 79 % 0 mm
00:17 -19.8 °C -21.6 °C 34899.5 hPa NNE 33.6 km/h 54.4 km/h 79 % 0 mm
00:22 -19.9 °C -21.6 °C 34899.5 hPa NE 28.5 km/h 54.4 km/h 79 % 0 mm
00:27 -19.9 °C -21.6 °C 34899.5 hPa NNE 15.6 km/h 54.4 km/h 79 % 0 mm
00:32 -19.9 °C -21.5 °C 34899.5 hPa NNE 18.2 km/h 49.2 km/h 80 % 0 mm
00:37 -19.9 °C -21.6 °C 34899.5 hPa NNW 15.6 km/h 49.2 km/h 80 % 0 mm
00:42 -19.9 °C -21.6 °C 34899.5 hPa NNE 20.8 km/h 49.2 km/h 80 % 0 mm
00:47 -19.9 °C -21.6 °C 34899.5 hPa NE 20.8 km/h 46.7 km/h 80 % 0 mm
00:52 -20 °C -21.6 °C 34899.5 hPa ENE 25.9 km/h 44.1 km/h 80 % 0 mm
00:57 -20 °C -21.6 °C 34899.5 hPa NNE 15.6 km/h 38.8 km/h 80 % 0 mm
01:02 -19.9 °C -21.6 °C 34899.5 hPa NNE 28.5 km/h 38.8 km/h 80 % 0 mm
01:07 -20.1 °C -21.7 °C 34899.5 hPa NNW 7.7 km/h 46.7 km/h 80 % 0 mm
01:12 -20.1 °C -21.6 °C 34899.5 hPa NNE 18.2 km/h 46.7 km/h 81 % 0 mm
01:17 -20.1 °C -21.6 °C 34889.3 hPa NNE 15.6 km/h 41.4 km/h 81 % 0 mm
01:22 -20.1 °C -21.6 °C 34899.5 hPa NNE 12.9 km/h 41.4 km/h 81 % 0 mm
01:27 -20.1 °C -21.7 °C 34889.3 hPa North 10.3 km/h 44.1 km/h 81 % 0 mm
01:32 -20.1 °C -21.7 °C 34889.3 hPa NNE 31.1 km/h 44.1 km/h 81 % 0 mm
01:37 -20.1 °C -21.7 °C 34889.3 hPa North 20.8 km/h 44.1 km/h 81 % 0 mm
01:42 -20.1 °C -21.7 °C 34889.3 hPa WNW 7.7 km/h 44.1 km/h 81 % 0 mm
01:47 -20.2 °C -21.7 °C 34889.3 hPa NE 10.3 km/h 38.8 km/h 81 % 0 mm
01:52 -20.1 °C -21.7 °C 34889.3 hPa NNE 18.2 km/h 41.4 km/h 81 % 0 mm
01:57 -20.1 °C -21.7 °C 34889.3 hPa NNW 12.9 km/h 44.1 km/h 81 % 0 mm
02:02 -20.2 °C -21.7 °C 34889.3 hPa NE 28.5 km/h 44.1 km/h 81 % 0 mm
02:07 -20.2 °C -21.7 °C 34889.3 hPa NE 38.8 km/h 44.1 km/h 82 % 0 mm
02:12 -20.2 °C -21.6 °C 34889.3 hPa NE 18.2 km/h 41.4 km/h 82 % 0 mm
02:17 -20.2 °C -21.6 °C 34889.3 hPa NE 2.6 km/h 41.4 km/h 82 % 0 mm
02:22 -20.2 °C -21.6 °C 34889.3 hPa NNE 15.6 km/h 41.4 km/h 82 % 0 mm
02:27 -20.2 °C -21.7 °C 34889.3 hPa NE 23.3 km/h 41.4 km/h 82 % 0 mm
02:32 -20.2 °C -21.7 °C 34889.3 hPa North 15.6 km/h 41.4 km/h 82 % 0 mm
02:37 -20.2 °C -21.7 °C 34889.3 hPa NNE 15.6 km/h 33.6 km/h 82 % 0 mm
02:42 -20.2 °C -21.7 °C 34889.3 hPa NNE 20.8 km/h 38.8 km/h 82 % 0 mm
02:47 -20.2 °C -21.7 °C 34889.3 hPa North 5.1 km/h 41.4 km/h 82 % 0 mm
02:52 -20.2 °C -21.7 °C 34889.3 hPa NNE 10.3 km/h 41.4 km/h 82 % 0 mm
02:57 -20.2 °C -21.7 °C 34889.3 hPa NNE 15.6 km/h 41.4 km/h 82 % 0 mm
03:02 -20.2 °C -21.7 °C 34889.3 hPa North 12.9 km/h 38.8 km/h 82 % 0 mm
03:12 -20.2 °C -21.7 °C 34889.3 hPa NNW 5.1 km/h 38.8 km/h 82 % 0 mm
03:17 -20.3 °C -21.7 °C 34889.3 hPa NNE 18.2 km/h 38.8 km/h 82 % 0 mm
03:22 -20.3 °C -21.7 °C 34889.3 hPa NE 5.1 km/h 38.8 km/h 82 % 0 mm
03:32 -20.3 °C -21.7 °C 34889.3 hPa NNW 5.1 km/h 41.4 km/h 83 % 0 mm
03:37 -20.3 °C -21.7 °C 34889.3 hPa NNE 28.5 km/h 54.4 km/h 83 % 0 mm
03:42 -20.3 °C -21.7 °C 34875.8 hPa NE 2.6 km/h 54.4 km/h 83 % 0 mm
03:52 -20.3 °C -21.7 °C 34875.8 hPa NNE 12.9 km/h 46.7 km/h 83 % 0 mm
03:57 -20.3 °C -21.7 °C 34875.8 hPa North 20.8 km/h 38.8 km/h 83 % 0 mm
04:02 -20.3 °C -21.7 °C 34875.8 hPa NNE 12.9 km/h 38.8 km/h 83 % 0 mm
04:12 -20.4 °C -21.7 °C 34875.8 hPa North 5.1 km/h 33.6 km/h 83 % 0 mm
04:17 -20.4 °C -21.7 °C 34875.8 hPa North 5.1 km/h 25.9 km/h 84 % 0 mm
04:22 -20.4 °C -21.7 °C 34875.8 hPa NE 12.9 km/h 36.2 km/h 84 % 0 mm
04:27 -20.4 °C -21.7 °C 34875.8 hPa NNE 10.3 km/h 38.8 km/h 84 % 0 mm
04:32 -20.4 °C -21.7 °C 34875.8 hPa North 7.7 km/h 38.8 km/h 84 % 0 mm
04:37 -20.5 °C -21.8 °C 34865.6 hPa North 12.9 km/h 38.8 km/h 84 % 0 mm
04:42 -20.5 °C -21.8 °C 34865.6 hPa NNE 25.9 km/h 31.1 km/h 84 % 0 mm
04:47 -20.5 °C -21.8 °C 34865.6 hPa WNW 7.7 km/h 36.2 km/h 84 % 0 mm
04:52 -20.4 °C -21.7 °C 34865.6 hPa NNW 15.6 km/h 36.2 km/h 84 % 0 mm
05:02 -20.5 °C -21.8 °C 34865.6 hPa NE 18.2 km/h 41.4 km/h 84 % 0 mm
05:12 -20.4 °C -21.7 °C 34865.6 hPa NNE 20.8 km/h 38.8 km/h 84 % 0 mm
05:17 -20.5 °C -21.8 °C 34865.6 hPa NW 10.3 km/h 36.2 km/h 84 % 0 mm
05:22 -20.5 °C -21.8 °C 34865.6 hPa NNE 15.6 km/h 36.2 km/h 84 % 0 mm
05:27 -20.5 °C -21.8 °C 34865.6 hPa NNE 20.8 km/h 44.1 km/h 84 % 0 mm
05:32 -20.5 °C -21.8 °C 34865.6 hPa NNE 12.9 km/h 44.1 km/h 84 % 0 mm
05:37 -20.5 °C -21.7 °C 34865.6 hPa NW 7.7 km/h 41.4 km/h 85 % 0 mm
05:42 -20.5 °C -21.7 °C 34865.6 hPa NNW 7.7 km/h 41.4 km/h 85 % 0 mm
05:47 -20.6 °C -21.7 °C 34865.6 hPa NNE 7.7 km/h 41.4 km/h 85 % 0 mm
05:52 -20.6 °C -21.7 °C 34865.6 hPa NNE 7.7 km/h 41.4 km/h 85 % 0 mm
05:57 -20.6 °C -21.8 °C 34865.6 hPa North 12.9 km/h 41.4 km/h 85 % 0 mm
06:02 -20.6 °C -21.8 °C 34865.6 hPa NNW 7.7 km/h 41.4 km/h 85 % 0 mm
06:07 -20.6 °C -21.8 °C 34865.6 hPa NNE 12.9 km/h 31.1 km/h 85 % 0 mm
06:12 -20.6 °C -21.8 °C 34875.8 hPa NE 5.1 km/h 31.1 km/h 85 % 0 mm
06:17 -20.6 °C -21.8 °C 34865.6 hPa North 7.7 km/h 31.1 km/h 85 % 0 mm
06:27 -20.6 °C -21.8 °C 34875.8 hPa NE 12.9 km/h 28.5 km/h 85 % 0 mm
06:32 -20.6 °C -21.8 °C 34875.8 hPa North 12.9 km/h 28.5 km/h 85 % 0 mm
06:37 -20.7 °C -21.8 °C 34865.6 hPa North 2.6 km/h 25.9 km/h 85 % 0 mm
06:42 -20.6 °C -21.8 °C 34875.8 hPa NNW 2.6 km/h 25.9 km/h 85 % 0 mm
06:52 -20.7 °C -21.8 °C 34875.8 hPa North 5.1 km/h 28.5 km/h 85 % 0 mm
06:57 -20.7 °C -21.8 °C 34875.8 hPa North 5.1 km/h 28.5 km/h 85 % 0 mm
07:02 -20.6 °C -21.8 °C 34875.8 hPa Calm   28.5 km/h 85 % 0 mm
07:07 -20.7 °C -21.8 °C 34875.8 hPa North 28.5 km/h 33.6 km/h 85 % 0 mm
07:12 -20.6 °C -21.8 °C 34875.8 hPa NNE 28.5 km/h 33.6 km/h 85 % 0 mm
07:17 -20.7 °C -21.8 °C 34875.8 hPa NNW 2.6 km/h 36.2 km/h 85 % 0 mm
07:22 -20.7 °C -21.8 °C 34875.8 hPa NE 18.2 km/h 36.2 km/h 85 % 0 mm
07:27 -20.7 °C -21.8 °C 34875.8 hPa NNW 2.6 km/h 33.6 km/h 85 % 0 mm
07:32 -20.7 °C -21.8 °C 34889.3 hPa NNE 5.1 km/h 33.6 km/h 85 % 0 mm
07:37 -20.6 °C -21.8 °C 34889.3 hPa ENE 2.6 km/h 33.6 km/h 85 % 0 mm
07:42 -20.7 °C -21.8 °C 34889.3 hPa NE 5.1 km/h 33.6 km/h 85 % 0 mm
07:52 -20.7 °C -21.8 °C 34889.3 hPa NE 33.6 km/h 33.6 km/h 85 % 0 mm
07:57 -20.6 °C -21.8 °C 34875.8 hPa NNE 7.7 km/h 31.1 km/h 85 % 0 mm
08:02 -20.6 °C -21.8 °C 34889.3 hPa North 18.2 km/h 31.1 km/h 85 % 0 mm
08:12 -20.6 °C -21.9 °C 34889.3 hPa NNW 5.1 km/h 38.8 km/h 84 % 0 mm
08:17 -20.7 °C -21.9 °C 34889.3 hPa NNW 2.6 km/h 33.6 km/h 84 % 0 mm
08:22 -20.6 °C -21.8 °C 34889.3 hPa North 5.1 km/h 33.6 km/h 85 % 0 mm
08:32 -20.6 °C -21.9 °C 34889.3 hPa NE 2.6 km/h 33.6 km/h 84 % 0 mm
08:37 -20.6 °C -21.9 °C 34889.3 hPa NE 31.1 km/h 38.8 km/h 84 % 0 mm
08:42 -20.6 °C -21.9 °C 34889.3 hPa NW 7.7 km/h 38.8 km/h 84 % 0 mm
08:47 -20.6 °C -21.9 °C 34889.3 hPa North 12.9 km/h 33.6 km/h 84 % 0 mm
08:52 -20.6 °C -21.9 °C 34889.3 hPa NNE 12.9 km/h 33.6 km/h 84 % 0 mm
08:57 -20.6 °C -21.8 °C 34889.3 hPa NNE 15.6 km/h 36.2 km/h 84 % 0 mm
09:02 -20.5 °C -21.8 °C 34889.3 hPa NNW 15.6 km/h 36.2 km/h 84 % 0 mm
09:12 -20.4 °C -21.7 °C 34899.5 hPa NNW 5.1 km/h 38.8 km/h 84 % 0 mm
09:17 -20.4 °C -21.7 °C 34899.5 hPa NE 18.2 km/h 41.4 km/h 83 % 0 mm
09:22 -20.3 °C -21.7 °C 34899.5 hPa NNE 25.9 km/h 41.4 km/h 83 % 0 mm
09:27 -20.3 °C -21.7 °C 34899.5 hPa NE 15.6 km/h 41.4 km/h 83 % 0 mm
09:32 -20.3 °C -21.7 °C 34899.5 hPa NE 12.9 km/h 41.4 km/h 82 % 0 mm
09:37 -20.2 °C -21.6 °C 34899.5 hPa ENE 23.3 km/h 41.4 km/h 83 % 0 mm
09:42 -20.2 °C -21.6 °C 34899.5 hPa NE 25.9 km/h 41.4 km/h 82 % 0 mm
09:47 -20.2 °C -21.6 °C 34899.5 hPa NE 18.2 km/h 46.7 km/h 82 % 0 mm
09:52 -20.1 °C -21.6 °C 34899.5 hPa NE 15.6 km/h 46.7 km/h 82 % 0 mm
09:57 -20.1 °C -21.6 °C 34899.5 hPa North 2.6 km/h 46.7 km/h 81 % 0 mm
10:02 -20.1 °C -21.6 °C 34899.5 hPa NNE 44.1 km/h 46.7 km/h 81 % 0 mm
10:12 -19.9 °C -21.5 °C 34899.5 hPa East 7.7 km/h 46.7 km/h 81 % 0 mm
10:17 -19.9 °C -21.5 °C 34899.5 hPa NE 28.5 km/h 46.7 km/h 81 % 0 mm
10:22 -19.9 °C -21.5 °C 34899.5 hPa NE 18.2 km/h 46.7 km/h 81 % 0 mm
10:32 -19.8 °C -21.4 °C 34899.5 hPa NE 25.9 km/h 51.8 km/h 81 % 0 mm
10:37 -19.8 °C -21.4 °C 34899.5 hPa ENE 44.1 km/h 54.4 km/h 80 % 0 mm
10:42 -19.8 °C -21.3 °C 34899.5 hPa NE 36.2 km/h 54.4 km/h 81 % 0 mm
10:47 -19.8 °C -21.4 °C 34899.5 hPa NE 33.6 km/h 57 km/h 80 % 0 mm
10:52 -19.7 °C -21.2 °C 34899.5 hPa NNE 28.5 km/h 57 km/h 81 % 0 mm
11:02 -19.7 °C -21.3 °C 34899.5 hPa NNE 44.1 km/h 62.1 km/h 80 % 0 mm
11:07 -19.6 °C -21.3 °C 34899.5 hPa NNE 20.8 km/h 62.1 km/h 80 % 0 mm
11:12 -19.6 °C -21.1 °C 34899.5 hPa NE 33.6 km/h 62.1 km/h 81 % 0 mm
11:17 -19.6 °C -21.3 °C 34899.5 hPa NE 51.8 km/h 57 km/h 79 % 0 mm
11:22 -19.6 °C -21.3 °C 34899.5 hPa NNE 54.4 km/h 62.1 km/h 79 % 0 mm
11:32 -19.6 °C -21.2 °C 34899.5 hPa NE 38.8 km/h 67.3 km/h 80 % 0 mm
11:37 -19.6 °C -21.2 °C 34899.5 hPa NNE 36.2 km/h 67.3 km/h 80 % 0 mm
11:42 -19.6 °C -21.3 °C 34909.7 hPa NE 25.9 km/h 62.1 km/h 79 % 0 mm
11:47 -19.5 °C -21.2 °C 34909.7 hPa ENE 15.6 km/h 49.2 km/h 80 % 0 mm
11:52 -19.5 °C -21.2 °C 34899.5 hPa NE 25.9 km/h 49.2 km/h 79 % 0 mm
11:57 -19.4 °C -21.1 °C 34899.5 hPa NE 36.2 km/h 46.7 km/h 79 % 0 mm
12:02 -19.3 °C -21.1 °C 34899.5 hPa NNE 36.2 km/h 44.1 km/h 79 % 0 mm
12:07 -19.3 °C -21.1 °C 34899.5 hPa NE 38.8 km/h 44.1 km/h 79 % 0 mm
12:12 -19.3 °C -21.2 °C 34889.3 hPa North 38.8 km/h 44.1 km/h 78 % 0 mm
12:17 -19.3 °C -21.1 °C 34889.3 hPa NE 20.8 km/h 44.1 km/h 78 % 0 mm
12:22 -19.3 °C -21.1 °C 34889.3 hPa ENE 28.5 km/h 46.7 km/h 78 % 0 mm
12:27 -19.3 °C -21 °C 34889.3 hPa NNE 36.2 km/h 46.7 km/h 79 % 0 mm
12:32 -19.2 °C -20.9 °C 34889.3 hPa NE 20.8 km/h 46.7 km/h 79 % 0 mm
12:37 -19.2 °C -20.9 °C 34889.3 hPa North 31.1 km/h 46.7 km/h 79 % 0 mm
12:47 -19.2 °C -20.9 °C 34889.3 hPa NNE 10.3 km/h 46.7 km/h 79 % 0 mm
12:52 -19.1 °C -20.9 °C 34889.3 hPa NE 28.5 km/h 46.7 km/h 78 % 0 mm
12:57 -19 °C -20.8 °C 34875.8 hPa NNE 36.2 km/h 51.8 km/h 78 % 0 mm
13:02 -19 °C -20.9 °C 34875.8 hPa NNE 20.8 km/h 51.8 km/h 77 % 0 mm
13:07 -19 °C -21.1 °C 34875.8 hPa North 15.6 km/h 44.1 km/h 76 % 0 mm
13:12 -18.9 °C -20.9 °C 34875.8 hPa ENE 5.1 km/h 41.4 km/h 77 % 0 mm
13:17 -18.8 °C -20.8 °C 34875.8 hPa NNE 28.5 km/h 41.4 km/h 77 % 0 mm
13:22 -18.7 °C -20.5 °C 34889.3 hPa NNE 28.5 km/h 38.8 km/h 78 % 0 mm
13:32 -18.7 °C -20.8 °C 34875.8 hPa ENE 31.1 km/h 44.1 km/h 75 % 0 mm
13:37 -18.7 °C -20.8 °C 34875.8 hPa NE 44.1 km/h 46.7 km/h 75 % 0 mm
13:42 -18.8 °C -20.8 °C 34865.6 hPa ENE 18.2 km/h 62.1 km/h 76 % 0 mm
13:47 -18.8 °C -20.8 °C 34865.6 hPa North 36.2 km/h 62.1 km/h 76 % 0 mm
13:52 -18.8 °C -20.9 °C 34865.6 hPa NNE 36.2 km/h 62.1 km/h 75 % 0 mm
13:57 -18.7 °C -20.6 °C 34865.6 hPa NNE 31.1 km/h 57 km/h 77 % 0 mm
14:02 -18.6 °C -20.6 °C 34865.6 hPa ENE 28.5 km/h 51.8 km/h 77 % 0 mm
14:07 -18.6 °C -20.7 °C 34865.6 hPa ENE 15.6 km/h 49.2 km/h 75 % 0 mm
14:12 -18.5 °C -20.6 °C 34865.6 hPa NE 25.9 km/h 49.2 km/h 76 % 0 mm
14:17 -18.4 °C -20.6 °C 34865.6 hPa NE 25.9 km/h 49.2 km/h 75 % 0 mm
14:22 -18.3 °C -20.4 °C 34865.6 hPa NNE 15.6 km/h 33.6 km/h 75 % 0 mm
14:32 -18.3 °C -20.4 °C 34865.6 hPa NNE 20.8 km/h 51.8 km/h 75 % 0 mm
14:37 -18.3 °C -20.6 °C 34865.6 hPa East 18.2 km/h 51.8 km/h 74 % 0 mm
14:42 -18.3 °C -20.5 °C 34875.8 hPa NE 18.2 km/h 46.7 km/h 75 % 0 mm
14:47 -18.3 °C -20.5 °C 34865.6 hPa ENE 23.3 km/h 46.7 km/h 75 % 0 mm
14:52 -18.4 °C -20.6 °C 34865.6 hPa NE 25.9 km/h 46.7 km/h 74 % 0 mm
14:57 -18.4 °C -20.6 °C 34865.6 hPa NNE 18.2 km/h 46.7 km/h 74 % 0 mm
15:02 -18.2 °C -20.4 °C 34875.8 hPa NE 23.3 km/h 46.7 km/h 75 % 0 mm
15:12 -18.1 °C -20.3 °C 34875.8 hPa NNE 18.2 km/h 51.8 km/h 75 % 0 mm
15:17 -18.1 °C -20.4 °C 34875.8 hPa NE 20.8 km/h 51.8 km/h 73 % 0 mm
15:22 -18.1 °C -20.4 °C 34875.8 hPa NE 10.3 km/h 51.8 km/h 73 % 0 mm
15:27 -18.1 °C -20.4 °C 34875.8 hPa ENE 28.5 km/h 51.8 km/h 74 % 0 mm
15:32 -18.1 °C -20.4 °C 34875.8 hPa NNE 23.3 km/h 54.4 km/h 74 % 0 mm
15:37 -18.1 °C -20.4 °C 34865.6 hPa NNE 31.1 km/h 54.4 km/h 73 % 0 mm
15:42 -18 °C -20.4 °C 34875.8 hPa ENE 33.6 km/h 54.4 km/h 72 % 0 mm
15:47 -18 °C -20.6 °C 34875.8 hPa NE 31.1 km/h 51.8 km/h 71 % 0 mm
15:52 -18 °C -20.3 °C 34875.8 hPa NNE 38.8 km/h 49.2 km/h 73 % 0 mm
15:57 -18 °C -20.6 °C 34875.8 hPa NE 28.5 km/h 54.4 km/h 71 % 0 mm
16:02 -18 °C -20.4 °C 34875.8 hPa NE 18.2 km/h 54.4 km/h 72 % 0 mm
16:07 -18 °C -20.6 °C 34875.8 hPa NE 25.9 km/h 54.4 km/h 71 % 0 mm
16:12 -18 °C -20.4 °C 34875.8 hPa NNE 20.8 km/h 51.8 km/h 72 % 0 mm
16:17 -18 °C -20.6 °C 34875.8 hPa NE 28.5 km/h 51.8 km/h 71 % 0 mm
16:32 -18 °C -20.4 °C 34875.8 hPa NE 12.9 km/h 49.2 km/h 72 % 0 mm
16:37 -18 °C -20.4 °C 34875.8 hPa NNE 25.9 km/h 49.2 km/h 72 % 0 mm
16:42 -18 °C -20.4 °C 34889.3 hPa NE 25.9 km/h 49.2 km/h 72 % 0 mm
16:47 -18 °C -20.4 °C 34889.3 hPa NNE 25.9 km/h 46.7 km/h 72 % 0 mm
16:52 -18 °C -20.4 °C 34889.3 hPa NE 25.9 km/h 51.8 km/h 72 % 0 mm
17:02 -18.1 °C -20.5 °C 34889.3 hPa NE 33.6 km/h 51.8 km/h 72 % 0 mm
17:12 -18.2 °C -20.6 °C 34889.3 hPa NE 15.6 km/h 46.7 km/h 72 % 0 mm
17:17 -18.2 °C -20.7 °C 34889.3 hPa NE 25.9 km/h 46.7 km/h 72 % 0 mm
17:32 -18.3 °C -20.7 °C 34889.3 hPa NNE 31.1 km/h 41.4 km/h 72 % 0 mm
17:37 -18.3 °C -20.8 °C 34889.3 hPa NNE 18.2 km/h 41.4 km/h 72 % 0 mm
17:42 -18.4 °C -20.7 °C 34889.3 hPa NE 25.9 km/h 36.2 km/h 73 % 0 mm
17:47 -18.4 °C -20.7 °C 34889.3 hPa NE 18.2 km/h 36.2 km/h 73 % 0 mm
17:52 -18.4 °C -20.8 °C 34889.3 hPa North 15.6 km/h 36.2 km/h 73 % 0 mm
18:02 -18.4 °C -20.9 °C 34889.3 hPa NE 28.5 km/h 46.7 km/h 72 % 0 mm
18:07 -18.4 °C -20.8 °C 34889.3 hPa NE 23.3 km/h 46.7 km/h 73 % 0 mm
18:12 -18.5 °C -20.8 °C 34889.3 hPa NNE 18.2 km/h 44.1 km/h 73 % 0 mm
18:17 -18.6 °C -20.8 °C 34889.3 hPa NE 15.6 km/h 44.1 km/h 74 % 0 mm
18:22 -18.6 °C -20.9 °C 34889.3 hPa NNE 20.8 km/h 41.4 km/h 73 % 0 mm
18:27 -18.6 °C -20.8 °C 34889.3 hPa NNE 10.3 km/h 41.4 km/h 74 % 0 mm
18:32 -18.6 °C -20.8 °C 34889.3 hPa NE 12.9 km/h 33.6 km/h 74 % 0 mm
18:37 -18.7 °C -20.9 °C 34889.3 hPa NNE 15.6 km/h 33.6 km/h 74 % 0 mm
18:42 -18.7 °C -20.9 °C 34889.3 hPa North 25.9 km/h 33.6 km/h 74 % 0 mm
18:47 -18.7 °C -20.8 °C 34899.5 hPa NE 18.2 km/h 31.1 km/h 75 % 0 mm
18:52 -18.7 °C -20.8 °C 34899.5 hPa NE 7.7 km/h 31.1 km/h 75 % 0 mm
18:57 -18.7 °C -20.8 °C 34899.5 hPa NNE 7.7 km/h 31.1 km/h 75 % 0 mm
19:02 -18.7 °C -20.8 °C 34899.5 hPa NE 15.6 km/h 38.8 km/h 75 % 0 mm
19:07 -18.8 °C -20.9 °C 34899.5 hPa NE 12.9 km/h 38.8 km/h 75 % 0 mm
19:12 -18.8 °C -20.9 °C 34899.5 hPa North 15.6 km/h 38.8 km/h 75 % 0 mm
19:17 -18.8 °C -20.9 °C 34899.5 hPa NNE 20.8 km/h 28.5 km/h 75 % 0 mm
19:22 -18.8 °C -20.9 °C 34899.5 hPa NNE 15.6 km/h 31.1 km/h 75 % 0 mm
19:32 -18.9 °C -20.9 °C 34899.5 hPa ENE 5.1 km/h 36.2 km/h 76 % 0 mm
19:37 -18.9 °C -21 °C 34899.5 hPa North 12.9 km/h 31.1 km/h 76 % 0 mm
19:42 -18.9 °C -21 °C 34899.5 hPa NE 20.8 km/h 28.5 km/h 76 % 0 mm
19:47 -19 °C -21.1 °C 34899.5 hPa North 15.6 km/h 31.1 km/h 76 % 0 mm
19:52 -19.1 °C -21 °C 34899.5 hPa NE 18.2 km/h 31.1 km/h 77 % 0 mm
19:57 -19.1 °C -21 °C 34899.5 hPa NNW 10.3 km/h 31.1 km/h 77 % 0 mm
20:02 -19.1 °C -21 °C 34899.5 hPa NNE 20.8 km/h 28.5 km/h 77 % 0 mm
20:12 -19.1 °C -21.1 °C 34899.5 hPa NNE 10.3 km/h 31.1 km/h 77 % 0 mm
20:17 -19.1 °C -21.1 °C 34899.5 hPa NNE 7.7 km/h 31.1 km/h 77 % 0 mm
20:22 -19.2 °C -21.1 °C 34899.5 hPa NE 23.3 km/h 31.1 km/h 77 % 0 mm
20:27 -19.2 °C -21.1 °C 34899.5 hPa NNE 10.3 km/h 31.1 km/h 77 % 0 mm
20:32 -19.2 °C -21.1 °C 34899.5 hPa NE 15.6 km/h 31.1 km/h 77 % 0 mm
20:37 -19.2 °C -21.2 °C 34899.5 hPa North 15.6 km/h 25.9 km/h 77 % 0 mm
20:42 -19.2 °C -21.1 °C 34889.3 hPa NNE 7.7 km/h 25.9 km/h 78 % 0 mm
20:52 -19.3 °C -21.2 °C 34899.5 hPa NNE 18.2 km/h 25.9 km/h 78 % 0 mm
20:57 -19.4 °C -21.2 °C 34889.3 hPa NNE 2.6 km/h 20.8 km/h 78 % 0 mm
21:02 -19.4 °C -21.2 °C 34889.3 hPa NE 10.3 km/h 20.8 km/h 79 % 0 mm
21:07 -19.5 °C -21.2 °C 34889.3 hPa North 7.7 km/h 20.8 km/h 79 % 0 mm
21:12 -19.4 °C -21.2 °C 34889.3 hPa NE 18.2 km/h 25.9 km/h 79 % 0 mm
21:17 -19.5 °C -21.2 °C 34889.3 hPa NNE 12.9 km/h 25.9 km/h 79 % 0 mm
21:22 -19.5 °C -21.2 °C 34889.3 hPa NNE 5.1 km/h 25.9 km/h 79 % 0 mm
21:27 -19.5 °C -21.2 °C 34899.5 hPa East 2.6 km/h 23.3 km/h 79 % 0 mm
21:32 -19.5 °C -21.2 °C 34889.3 hPa NNW 7.7 km/h 23.3 km/h 79 % 0 mm
21:37 -19.5 °C -21.2 °C 34899.5 hPa WNW 5.1 km/h 23.3 km/h 79 % 0 mm
21:42 -19.5 °C -21.2 °C 34899.5 hPa Calm   36.2 km/h 79 % 0 mm
21:47 -19.6 °C -21.3 °C 34899.5 hPa NNE 20.8 km/h 36.2 km/h 79 % 0 mm
21:52 -19.6 °C -21.3 °C 34899.5 hPa Calm   25.9 km/h 79 % 0 mm
21:57 -19.6 °C -21.3 °C 34899.5 hPa NNE 5.1 km/h 25.9 km/h 79 % 0 mm
22:02 -19.7 °C -21.3 °C 34899.5 hPa Calm   25.9 km/h 80 % 0 mm
22:12 -19.7 °C -21.3 °C 34889.3 hPa NNE 2.6 km/h 23.3 km/h 80 % 0 mm
22:17 -19.7 °C -21.3 °C 34889.3 hPa Calm   23.3 km/h 80 % 0 mm
22:27 -19.8 °C -21.4 °C 34899.5 hPa Calm   15.6 km/h 80 % 0 mm
22:32 -19.9 °C -21.4 °C 34889.3 hPa Calm   12.9 km/h 81 % 0 mm
22:37 -19.9 °C -21.4 °C 34899.5 hPa NE 2.6 km/h 12.9 km/h 81 % 0 mm
22:42 -19.9 °C -21.5 °C 34889.3 hPa Calm   12.9 km/h 81 % 0 mm
22:47 -20 °C -21.4 °C 34889.3 hPa North 2.6 km/h 12.9 km/h 82 % 0 mm
22:52 -20.1 °C -21.6 °C 34889.3 hPa NNE 2.6 km/h 10.3 km/h 82 % 0 mm
23:02 -20.2 °C -21.6 °C 34889.3 hPa NNE 2.6 km/h 10.3 km/h 82 % 0 mm
23:12 -20.2 °C -21.6 °C 34889.3 hPa Calm   7.7 km/h 83 % 0 mm
23:17 -20.2 °C -21.6 °C 34889.3 hPa North 5.1 km/h 12.9 km/h 83 % 0 mm
23:22 -20.2 °C -21.6 °C 34889.3 hPa NNE 5.1 km/h 12.9 km/h 82 % 0 mm
23:32 -20.2 °C -21.6 °C 34889.3 hPa NNW 5.1 km/h 12.9 km/h 83 % 0 mm
23:37 -20.3 °C -21.6 °C 34889.3 hPa NNW 10.3 km/h 15.6 km/h 83 % 0 mm
23:42 -20.3 °C -21.7 °C 34889.3 hPa Calm   15.6 km/h 83 % 0 mm
23:47 -20.3 °C -21.7 °C 34889.3 hPa North 2.6 km/h 15.6 km/h 83 % 0 mm
23:52 -20.3 °C -21.6 °C 34875.8 hPa NE 12.9 km/h 25.9 km/h 83 % 0 mm
23:57 -20.3 °C -21.6 °C 34889.3 hPa NNW 5.1 km/h 25.9 km/h 83 % 0 mm
Meteo18
Compliments of Weather Underground - 4 mb

Script developed by  Jim McMurry - jmcmurry@mwt.net Adapted for the template by  Wim van der Kuil - Leuven-Template.eu

You find our weather info also at:

European Weather Network

Weather Underground

Equipment we use:

Weather-station
Davis Vue

Weather-program
Meteobridge

Weather-server
Raspberry PI 2 B+

Provider
1 and 1

Davis Vue

Meteobridge

Raspberry PI 2 B+

1 and 1